USA 167

Last updated on Fri Dec 19 2025 00:02:48 GMT+0000 (Coordinated Universal Time)

1 27691U 03008A 25352.60930318 .00000020 00000+0 00000+0 0 9993 2 27691 10.6019 45.0048 0004807 263.2370 236.5769 1.00274293 4962
UTC large
Height (km)
Speed (km/s)
/
Latitude / Longitude
Inclination (degrees)
Orbital Period (minutes)
Azimuth
Elevation
Range (km)
Doppler Factor

Next 0 passes for location: London (51.5072 / 0.1276)

Sorry there are no passes over London.